Weather History for Mount Shasta, CA

Change the Weather History Date:

Monday, November 4, 2013

  Actual Average Record
Temperature  
Mean Temperature 41 °F 44 °F  
Max Temperature 50 °F 56 °F 86 °F (1919)
Min Temperature 31 °F 32 °F 12 °F (1935)
Degree Days  
Heating Degree Days 24 21  
Month to date heating degree days 84 81  
Since 1 July heating degree days 723 745  
Cooling Degree Days 0 0  
Month to date cooling degree days 0 0  
Year to date cooling degree days 474 288  
Moisture  
Dew Point 27 °F    
Average Humidity 67    
Maximum Humidity 82    
Minimum Humidity 36    
Precipitation  
Precipitation 0.00 in 0.15 in 2.22 in (1970)
Month to date precipitation 0.01 0.59  
Year to date precipitation 9.55 30.87  
Sea Level Pressure  
Sea Level Pressure 30.18 in    
Wind  
Wind Speed 4 mph (NNW)    
Max Wind Speed 13 mph    
Max Gust Speed 26 mph    
Visibility 10 miles    
Events      
T = Trace of Precipitation, MM = Missing Value Source: NWS Daily Summary

Daily Weather History Graph

Daily Weather History Graph

Search for Another Location

Airport:

Trip Planner

Search our weather history database for the weather conditions in past years. The results will help you decide how hot, cold, wet, or windy it might be!

Date:

Astronomy

Nov. 04, 2013 Rise Set
Actual Time 6:44 AM PST 5:00 PM PST
Civil Twilight 6:15 AM PST 5:29 PM PST
Nautical Twilight 5:42 AM PST 6:02 PM PST
Astronomical Twilight 5:10 AM PST 6:34 PM PST
Moon 8:01 AM PST (11/4) 6:09 PM PST (11/4)
Length of Visible Light 11h 13m
Length of Day
10h 15m
New Moon, 2% of the Moon is Illuminated
Nov 4
New Moon
Nov 9
First Quarter
Nov 17
Full
Nov 25
Last Quarter
Dec 2
New

Hourly Weather History & Observations

Time (PST) Temp. Windchill Dew Point Humidity Pressure Visibility Wind Dir Wind Speed Gust Speed Precip Events Conditions
12:24 AM 33.8 °F 28.6 °F 26.6 °F 75% 30.06 in 10.0 mi NNE 5.8 mph - N/A   Mostly Cloudy
12:56 AM 34.0 °F 28.0 °F 28.0 °F 79% 30.15 in 10.0 mi Variable 6.9 mph - N/A   Overcast
1:56 AM 35.1 °F 29.3 °F 27.0 °F 72% 30.15 in 10.0 mi Variable 6.9 mph - N/A   Overcast
2:52 AM 33.8 °F 29.6 °F 26.6 °F 75% 30.07 in 10.0 mi North 4.6 mph - N/A   Scattered Clouds
2:56 AM 34.0 °F 31.0 °F 27.0 °F 75% 30.15 in 10.0 mi North 3.5 mph - N/A   Scattered Clouds
3:04 AM 33.8 °F 29.6 °F 26.6 °F 75% 30.07 in 10.0 mi Variable 4.6 mph - N/A   Mostly Cloudy
3:56 AM 34.0 °F - 28.0 °F 79% 30.16 in 10.0 mi Calm Calm - N/A   Overcast
4:26 AM 33.8 °F - 28.4 °F 81% 30.08 in 10.0 mi Calm Calm - N/A   Overcast
4:56 AM 34.0 °F - 27.0 °F 75% 30.18 in 10.0 mi Calm Calm - N/A   Overcast
5:56 AM 34.0 °F 28.8 °F 27.0 °F 75% 30.19 in 10.0 mi Variable 5.8 mph - N/A   Mostly Cloudy
6:29 AM 33.8 °F - 26.6 °F 75% 30.10 in 10.0 mi Calm Calm - N/A   Scattered Clouds
6:56 AM 32.0 °F 28.7 °F 27.0 °F 82% 30.20 in 10.0 mi East 3.5 mph - N/A   Mostly Cloudy
7:22 AM 33.8 °F 29.6 °F 26.6 °F 75% 30.11 in 10.0 mi Variable 4.6 mph - N/A   Scattered Clouds
7:56 AM 34.0 °F 31.0 °F 27.0 °F 75% 30.22 in 10.0 mi Variable 3.5 mph - N/A   Partly Cloudy
8:56 AM 34.0 °F - 27.0 °F 75% 30.23 in 10.0 mi Calm Calm - N/A   Clear
9:56 AM 37.0 °F - 27.0 °F 67% 30.23 in 10.0 mi Calm Calm - N/A   Clear
10:56 AM 43.0 °F 38.2 °F 27.0 °F 53% 30.21 in 10.0 mi NW 8.1 mph 20.7 mph N/A   Clear
11:56 AM 46.9 °F - 26.1 °F 44% 30.19 in 10.0 mi NNW 8.1 mph 19.6 mph N/A   Clear
12:56 PM 48.0 °F - 25.0 °F 41% 30.17 in 10.0 mi NNW 10.4 mph 20.7 mph N/A   Clear
1:56 PM 50.0 °F - 25.0 °F 38% 30.15 in 10.0 mi NNW 8.1 mph 20.7 mph N/A   Clear
2:56 PM 48.9 °F - 27.0 °F 43% 30.17 in 10.0 mi Variable 5.8 mph 20.7 mph N/A   Clear
3:56 PM 46.9 °F - 27.0 °F 46% 30.18 in 10.0 mi Variable 6.9 mph 20.7 mph N/A   Clear
4:56 PM 45.0 °F 39.3 °F 27.0 °F 49% 30.18 in 10.0 mi NW 11.5 mph 18.4 mph N/A   Clear
5:56 PM 42.1 °F - 27.0 °F 55% 30.21 in 10.0 mi Calm Calm - N/A   Clear
6:56 PM 39.9 °F 35.8 °F 27.0 °F 60% 30.24 in 10.0 mi Variable 5.8 mph - N/A   Partly Cloudy
7:56 PM 39.0 °F - 27.0 °F 62% 30.25 in 10.0 mi Calm Calm - N/A   Clear
8:56 PM 37.9 °F - 28.0 °F 68% 30.27 in 10.0 mi Calm Calm - N/A   Clear
9:56 PM 33.1 °F - 27.0 °F 78% 30.29 in 4.0 mi Calm Calm - N/A   Haze
10:56 PM 33.1 °F - 27.0 °F 78% 30.27 in 10.0 mi Calm Calm - N/A   Clear
11:56 PM 32.0 °F - 25.0 °F 75% 30.27 in 9.0 mi Calm Calm - N/A   Clear